Weather reports worldwide

Advertisment
Svenska Hogarna A, Sweden (2498): temperature & dewpoint: 10.10.2019 05:00:00 - 16.10.2019 05:00:00 (CEST)Svenska Hogarna A, Sweden (2498): wind speed & gusts: 10.10.2019 05:00:00 - 16.10.2019 05:00:00 (CEST)Svenska Hogarna A, Sweden (2498): wind direction: 10.10.2019 05:00:00 - 16.10.2019 05:00:00 (CEST)Svenska Hogarna A, Sweden (2498): reduced air pressure: 10.10.2019 05:00:00 - 16.10.2019 05:00:00 (CEST)Svenska Hogarna A, Sweden (2498): visibility: 10.10.2019 05:00:00 - 16.10.2019 05:00:00 (CEST)Svenska Hogarna A, Sweden (2498): precipitation: 10.10.2019 05:00:00 - 16.10.2019 05:00:00 (CEST)
Date & Time tt [°C] td [°C] ff [km/h] ff [kn] fx [km/h] fx [kn] dd ppp [hPa] vv [km] rr [mm]
16.10.2019 05:00:00 9,7 9,2 27 15 - - E 1009,8 - 0,0
16.10.2019 04:00:00 10,1 9,0 24 13 35 19 E 1010,5 - 0,0
16.10.2019 03:00:00 9,9 9,1 31 17 40 21 E 1011,1 - 0,0
16.10.2019 02:00:00 9,9 9,1 27 14 45 24 E 1011,5 - 0,0
16.10.2019 01:00:00 9,4 8,5 34 19 47 26 E 1012,3 - 0,0
16.10.2019 00:00:00 9,5 8,6 37 20 50 27 E 1012,9 - 0,0
15.10.2019 23:00:00 9,6 8,5 32 17 48 26 ESE 1013,7 - 0,0
15.10.2019 22:00:00 9,3 8,1 36 19 51 28 E 1014,3 - 0,0
15.10.2019 21:00:00 9,5 7,8 37 20 49 26 E 1014,6 - 0,0
15.10.2019 20:00:00 9,6 7,5 35 19 53 29 E 1015,2 0,1 0,0
15.10.2019 19:00:00 9,3 7,1 37 20 51 28 E 1015,5 0,1 0,0
15.10.2019 18:00:00 8,9 6,9 38 21 48 26 E 1016,3 - 0,0
15.10.2019 17:00:00 8,6 6,2 36 20 45 24 E 1016,5 - 0,2
15.10.2019 16:00:00 8,6 6,0 30 16 39 21 E 1017,5 0,1 0,0
15.10.2019 15:00:00 8,5 6,0 21 11 36 20 E 1019,0 0,1 0,0
15.10.2019 14:00:00 8,6 5,9 29 15 40 21 ESE 1019,1 0,1 0,0
15.10.2019 13:00:00 9,1 6,0 30 16 39 21 ESE 1019,1 - 0,0
15.10.2019 12:00:00 9,4 5,6 30 16 39 21 ESE 1019,3 0,1 0,0
15.10.2019 11:00:00 9,5 5,5 25 13 32 17 ESE 1019,6 0,1 0,0
15.10.2019 10:00:00 9,3 4,9 19 10 26 14 ESE 1020,1 0,1 0,0
15.10.2019 09:00:00 9,0 4,8 19 10 27 14 ESE 1019,6 0,1 0,0
15.10.2019 08:00:00 8,7 4,9 10 5 19 11 SE 1020,0 0,1 0,0
15.10.2019 07:00:00 8,6 4,0 13 7 21 11 SE 1020,0 - 0,0
15.10.2019 06:00:00 8,6 4,6 13 7 19 10 SE 1020,0 0,1 0,0
15.10.2019 05:00:00 8,6 4,8 11 6 15 8 SE 1019,7 0,1 0,0
15.10.2019 04:00:00 8,6 5,2 3 2 6 3 ENE 1019,3 0,1 0,0
15.10.2019 03:00:00 8,3 4,7 5 3 8 4 E 1019,1 0,1 0,0
15.10.2019 02:00:00 8,6 4,8 3 2 10 6 SE 1019,1 0,1 0,0
15.10.2019 01:00:00 8,5 5,1 3 1 6 3 ESE 1018,8 0,1 0,0
15.10.2019 00:00:00 8,3 5,1 5 3 15 8 ENE 1018,2 - 0,0
14.10.2019 23:00:00 7,9 5,2 10 6 19 10 ENE 1017,3 0,1 0,0
14.10.2019 22:00:00 8,0 5,3 14 8 25 13 NE 1016,6 0,1 0,0
14.10.2019 21:00:00 8,4 5,9 16 9 26 14 NNE 1015,8 0,1 0,0
14.10.2019 20:00:00 8,2 5,3 21 11 32 17 NNE 1014,6 0,1 0,0
14.10.2019 19:00:00 8,7 6,5 18 10 29 16 NNE 1013,6 0,1 0,0
14.10.2019 18:00:00 8,6 6,2 18 10 33 18 NNE 1012,4 - 0,0
14.10.2019 17:00:00 8,7 6,3 22 12 37 20 N 1011,0 0,1 0,0
14.10.2019 16:00:00 9,1 6,9 26 14 40 22 NNE 1009,0 0,1 0,0
14.10.2019 15:00:00 9,2 7,1 32 17 50 27 NNE 1007,2 0,1 0,0
14.10.2019 14:00:00 9,2 7,8 36 19 54 29 NE 1005,2 - 0,1
14.10.2019 13:00:00 8,8 7,4 41 22 53 29 NE 1003,8 - 0,0
14.10.2019 12:00:00 8,8 8,0 39 21 53 29 NE 1002,8 8 0,6
14.10.2019 11:00:00 8,7 8,1 40 21 54 29 NE 1001,9 3,8 0,7
14.10.2019 10:00:00 8,7 8,1 37 20 55 30 ENE 1001,1 4,1 0,5
14.10.2019 09:00:00 8,5 8,1 42 23 51 28 E 1000,8 3,4 1,1
14.10.2019 08:00:00 9,0 8,2 39 21 48 26 E 1001,6 4,2 0,9
14.10.2019 07:00:00 8,7 7,3 34 19 49 27 E 1002,4 10 0,6
14.10.2019 06:00:00 8,9 7,8 32 17 41 22 ESE 1003,5 10 0,9
14.10.2019 05:00:00 9,1 8,2 28 15 38 20 SE 1005,0 17 0,8
14.10.2019 04:00:00 9,7 8,9 21 12 31 17 SE 1005,8 11 2,2
14.10.2019 03:00:00 10,2 9,7 17 9 24 13 SE 1007,1 10 0,2
14.10.2019 02:00:00 10,2 9,7 18 10 23 12 SE 1007,9 13 0,0
14.10.2019 01:00:00 10,1 9,6 14 8 17 9 SE 1008,8 15 0,0
14.10.2019 00:00:00 10,1 9,5 10 5 18 10 S 1009,8 17 0,0
13.10.2019 23:00:00 10,1 9,2 16 8 19 11 SSW 1010,8 20 0,0
13.10.2019 22:00:00 9,9 9,0 14 8 25 13 SSW 1010,9 28 0,0
13.10.2019 21:00:00 10,0 8,4 16 9 21 11 SSW 1011,1 50 0,0
13.10.2019 20:00:00 9,8 8,4 9 5 11 6 SSW 1011,0 46 0,0
13.10.2019 19:00:00 9,7 8,1 9 5 13 7 S 1010,9 50 0,0
13.10.2019 18:00:00 9,7 7,5 9 5 18 10 SSW 1010,5 50 0,0
13.10.2019 17:00:00 10,7 6,8 14 8 27 14 W 1010,1 50 0,0
13.10.2019 16:00:00 11,1 6,6 21 11 25 14 WSW 1009,7 50 0,0
13.10.2019 15:00:00 11,4 7,1 21 12 27 15 WSW 1009,2 49 0,0
13.10.2019 14:00:00 11,2 7,7 15 8 24 13 W 1008,5 49 0,0
13.10.2019 13:00:00 11,2 7,5 20 11 24 13 W 1007,8 40 0,0
13.10.2019 12:00:00 10,4 6,9 19 11 27 15 W 1007,0 42 0,0
13.10.2019 11:00:00 10,1 7,5 22 12 32 17 WNW 1006,2 46 0,0
13.10.2019 10:00:00 9,6 7,5 26 14 38 20 W 1004,9 50 0,0
13.10.2019 09:00:00 10,1 8,0 31 17 44 24 W 1003,7 46 0,0
13.10.2019 08:00:00 10,0 8,3 37 20 48 26 W 1002,4 38 0,0
13.10.2019 07:00:00 10,1 8,4 35 19 - - W 1001,3 36 0,0
13.10.2019 06:00:00 10,5 8,6 31 17 47 25 WSW 1000,4 32 0,0
13.10.2019 05:00:00 10,5 8,1 35 19 50 27 WSW 999,7 30 0,0
13.10.2019 04:00:00 10,5 8,3 36 19 47 25 SW 999,3 30 0,0
13.10.2019 03:00:00 10,4 8,5 36 19 - - SW 998,7 32 0,0
13.10.2019 02:00:00 10,4 8,7 37 20 46 25 SW 998,3 39 0,0
13.10.2019 01:00:00 10,5 8,9 31 17 48 26 SW 998,0 8 0,0
13.10.2019 00:00:00 10,9 9,0 30 16 42 23 SW 997,5 23 0,0
12.10.2019 23:00:00 11,0 8,9 32 18 44 24 SW 997,2 35 0,0
12.10.2019 22:00:00 10,9 8,6 35 19 49 26 SW 996,9 35 0,0
12.10.2019 21:00:00 11,3 8,5 37 20 48 26 SW 996,7 34 0,0
12.10.2019 20:00:00 11,1 8,8 34 19 44 24 SW 996,6 19 0,0
12.10.2019 19:00:00 11,3 8,9 29 16 36 20 SW 996,6 24 0,0
12.10.2019 18:00:00 11,0 9,3 29 16 39 21 SW 996,3 21 0,0
12.10.2019 17:00:00 11,0 9,3 27 15 41 22 SW 996,0 20 0,0
12.10.2019 16:00:00 11,1 9,5 29 16 39 21 SW 995,7 20 0,0
12.10.2019 15:00:00 11,2 9,6 26 14 35 19 SW 995,5 19 0,0
12.10.2019 14:00:00 11,0 8,9 22 12 32 18 WSW 995,3 19 0,0
12.10.2019 13:00:00 10,7 9,3 26 14 44 24 WSW 994,7 27 0,0
12.10.2019 12:00:00 10,5 8,9 31 17 44 24 WSW 993,9 22 0,0
12.10.2019 11:00:00 10,5 8,6 30 16 41 22 WSW 993,1 20 0,0
12.10.2019 10:00:00 10,3 8,9 32 17 44 24 WSW 992,4 17 0,0
12.10.2019 09:00:00 9,9 8,7 36 19 47 26 WSW 991,5 19 0,0
12.10.2019 08:00:00 9,9 8,5 38 21 50 27 WSW 990,9 21 0,0
12.10.2019 07:00:00 9,7 7,8 35 19 46 25 WSW 990,2 35 0,0
12.10.2019 06:00:00 10,0 8,4 33 18 - - WSW 990,0 24 0,0
12.10.2019 05:00:00 10,1 8,9 32 17 44 24 WSW 989,8 28 0,0
12.10.2019 04:00:00 10,2 9,1 28 15 41 22 WSW 989,8 27 0,0
12.10.2019 03:00:00 10,3 9,7 31 17 44 24 WSW 989,9 34 0,0
12.10.2019 02:00:00 10,3 10,0 24 13 34 19 SW 990,1 22 0,3
12.10.2019 01:00:00 10,7 10,2 27 15 36 19 SW 990,7 19 0,1
12.10.2019 00:00:00 10,7 10,2 33 18 44 24 SW 991,4 6 1,3
11.10.2019 23:00:00 10,9 10,1 31 17 40 22 SSW 992,0 23 0,0
11.10.2019 22:00:00 10,5 9,6 31 17 41 22 SW 992,8 21 0,0
11.10.2019 21:00:00 10,6 10,1 21 11 30 16 SSW 993,8 18 0,0
11.10.2019 20:00:00 10,3 9,5 24 13 35 19 SSW 994,2 37 0,0
11.10.2019 19:00:00 10,3 9,5 22 12 34 18 SSW 995,6 41 0,0
11.10.2019 18:00:00 10,3 9,2 22 12 36 19 SSW 996,0 40 0,0
11.10.2019 17:00:00 10,6 9,4 24 13 39 21 SSW 996,3 25 0,0
11.10.2019 16:00:00 10,6 9,4 30 16 42 23 SW 997,0 30 0,0
11.10.2019 15:00:00 10,8 9,6 30 16 42 23 SW 997,7 40 0,0
11.10.2019 14:00:00 10,7 9,1 35 19 46 25 SW 998,1 35 0,0
11.10.2019 13:00:00 11,0 8,4 37 20 46 25 SW 998,4 37 0,0
11.10.2019 12:00:00 11,0 8,4 34 18 45 25 SW 998,7 40 0,0
11.10.2019 11:00:00 10,7 8,5 31 17 43 23 SSW 998,7 35 0,0
11.10.2019 10:00:00 10,4 8,7 32 17 45 25 SW 998,9 36 0,0
11.10.2019 09:00:00 9,8 8,9 32 17 47 26 SW 998,8 7 0,0
11.10.2019 08:00:00 9,8 8,4 28 15 38 20 SSW 999,0 35 0,0
11.10.2019 07:00:00 9,2 8,1 28 15 37 20 SW 999,2 29 0,0
11.10.2019 06:00:00 9,2 8,3 26 14 36 19 SW 999,4 37 0,0
11.10.2019 05:00:00 9,2 8,0 28 15 35 19 SW 999,6 48 0,0
11.10.2019 04:00:00 9,6 8,4 20 11 30 16 SW 999,7 44 0,0
11.10.2019 03:00:00 9,9 8,5 22 12 31 17 WSW 999,6 48 0,0
11.10.2019 02:00:00 9,9 8,7 23 12 32 18 WSW 999,7 50 0,0
11.10.2019 01:00:00 9,9 8,7 25 13 - - WSW 999,5 50 0,0
11.10.2019 00:00:00 10,1 9,0 24 13 31 17 WSW 999,5 28 0,0
10.10.2019 23:00:00 10,2 9,3 23 12 28 15 SW 999,5 42 0,0
10.10.2019 22:00:00 10,1 9,0 23 12 28 15 SW 999,6 46 0,0
10.10.2019 21:00:00 10,2 9,3 21 11 28 15 SW 999,6 43 0,0
10.10.2019 20:00:00 10,2 9,3 24 13 30 16 SW 999,5 42 0,0
10.10.2019 19:00:00 10,2 9,1 23 12 29 16 SW 999,5 42 0,0
10.10.2019 18:00:00 9,8 8,9 21 11 29 16 SSW 999,4 37 0,0
10.10.2019 17:00:00 10,1 8,4 20 11 24 13 SSW 999,3 41 0,0
10.10.2019 16:00:00 10,3 7,9 18 10 25 13 SSW 999,3 45 0,0
10.10.2019 15:00:00 10,6 9,0 14 8 - - S 999,3 50 0,0
10.10.2019 14:00:00 11,5 9,2 15 8 18 10 S 999,2 45 0,0
10.10.2019 13:00:00 11,8 9,9 13 7 - - SSW 999,0 41 0,0
10.10.2019 12:00:00 11,1 9,4 14 7 18 10 SSW 999,1 40 0,0
10.10.2019 11:00:00 10,8 9,6 9 5 13 7 SSW 998,9 20 0,0
10.10.2019 10:00:00 10,8 9,4 10 6 19 11 SW 998,9 33 0,0
10.10.2019 09:00:00 10,1 9,5 11 6 18 10 SE 998,8 22 0,0
10.10.2019 08:00:00 9,6 8,8 13 7 15 8 E 998,8 36 0,0
10.10.2019 07:00:00 9,0 8,2 10 5 14 7 SE 998,7 44 0,0
10.10.2019 06:00:00 8,9 7,7 12 6 15 8 SE 998,9 44 0,0
10.10.2019 05:00:00 8,5 7,0 7 4 9 5 SE 999,3 50 0,0

tt = temperature
td = dewpoint
ff = wind speed
fx = gusts
dd = wind direction
ppp = reduced air pressure
vv = visibility
rr = precipitation

Next stations